Location: Unspecified
(0.0000°N, 0.0000°E)
Time: 11:14:51
(UTC+00:00)

Vanguard 3 - Pass Details

Date: 25 November 2019
Orbit: 508 x 3263 km, 33.3° (Epoch: 13 December)

Event Time Altitude Azimuth Distance (km) Brightness Sun altitude
Rises 11:19:56 0° 272° (W) 5,374 11.3 68.2°
Reaches altitude 10° 11:23:44 10° 283° (WNW) 4,754 11.1 68.5°
Maximum altitude 11:35:48 30° 338° (NNW) 4,225 11.0 69.1°
Drops below altitude 10° 11:51:42 10° 33° (NNE) 6,191 11.6 69.2°
Sets 11:57:48 0° 43° (NE) 7,187 11.8 69.1°
